Weather History for Cambridge, MD

Change the Weather History Date:

Tuesday, July 30, 2013

  Actual Average (KESN) Record (KESN)
Temperature  
Mean Temperature 70 °F -  
Max Temperature 80 °F 85 °F 96 °F (1954)
Min Temperature 60 °F 65 °F 56 °F (1956)
Cooling Degree Days 5    
Growing Degree Days 20 (Base 50)    
Moisture  
Dew Point 59 °F    
Average Humidity 66    
Maximum Humidity 94    
Minimum Humidity 39    
Precipitation  
Precipitation 0.00 in - - ()
Sea Level Pressure  
Sea Level Pressure 30.17 in    
Wind  
Wind Speed 2 mph (NW)    
Max Wind Speed 9 mph    
Max Gust Speed -    
Visibility 10 miles    
Events      
Averages and records for this station are not official NWS values.
T = Trace of Precipitation, MM = Missing Value Source: NWS Daily Summary

Daily Weather History Graph

Daily Weather History Graph

Search for Another Location

Airport:

Trip Planner

Search our weather history database for the weather conditions in past years. The results will help you decide how hot, cold, wet, or windy it might be!

Date:

Astronomy

Jul. 30, 2013 Rise Set
Actual Time 6:04 AM EDT 8:16 PM EDT
Civil Twilight 5:34 AM EDT 8:45 PM EDT
Nautical Twilight 4:58 AM EDT 9:21 PM EDT
Astronomical Twilight 4:18 AM EDT 10:01 PM EDT
Moon 12:20 AM EDT (7/30) 2:34 PM EDT (7/30)
Length of Visible Light 15h 11m
Length of Day
14h 11m
Last Quarter, 41% of the Moon is Illuminated
Jul 30
Last Quarter
Aug 6
New
Aug 14
First Quarter
Aug 20
Full
Aug 28
Last Quarter

Hourly Weather History & Observations

Time (EDT) Temp. Heat Index Dew Point Humidity Pressure Visibility Wind Dir Wind Speed Gust Speed Precip Events Conditions
12:04 AM 62.6 °F - 60.8 °F 94% 30.15 in 10.0 mi Calm Calm - N/A   Clear
12:44 AM 62.6 °F - 60.8 °F 94% 30.15 in 10.0 mi Calm Calm - N/A   Clear
1:04 AM 62.6 °F - 60.8 °F 94% 30.15 in 10.0 mi Calm Calm - N/A   Clear
1:24 AM 62.6 °F - 59.0 °F 88% 30.15 in 10.0 mi Calm Calm - N/A   Clear
1:44 AM 62.6 °F - 59.0 °F 88% 30.15 in 10.0 mi Calm Calm - N/A   Clear
2:04 AM 60.8 °F - 59.0 °F 94% 30.15 in 10.0 mi Calm Calm - N/A   Clear
2:24 AM 60.8 °F - 59.0 °F 94% 30.15 in 10.0 mi Calm Calm - N/A   Clear
2:45 AM 60.8 °F - 59.0 °F 94% 30.15 in 10.0 mi Calm Calm - N/A   Clear
3:05 AM 60.8 °F - 59.0 °F 94% 30.15 in 10.0 mi Calm Calm - N/A   Clear
3:25 AM 60.8 °F - 59.0 °F 94% 30.15 in 10.0 mi Calm Calm - N/A   Clear
3:45 AM 60.8 °F - 57.2 °F 88% 30.16 in 10.0 mi Calm Calm - N/A   Clear
4:05 AM 60.8 °F - 59.0 °F 94% 30.16 in 10.0 mi Calm Calm - N/A   Clear
4:25 AM 60.8 °F - 57.2 °F 88% 30.16 in 10.0 mi Calm Calm - N/A   Clear
4:45 AM 60.8 °F - 59.0 °F 94% 30.17 in 10.0 mi Calm Calm - N/A   Clear
4:56 AM 60.8 °F - 59.0 °F 94% 30.17 in 10.0 mi Calm Calm - N/A   Scattered Clouds
6:39 AM 62.6 °F - 60.8 °F 94% 30.19 in 10.0 mi Calm Calm - N/A   Overcast
7:05 AM 64.4 °F - 62.6 °F 94% 30.19 in 10.0 mi Calm Calm - N/A   Mostly Cloudy
7:25 AM 69.8 °F - 64.4 °F 83% 30.20 in 10.0 mi North 4.6 mph - N/A   Mostly Cloudy
7:45 AM 69.8 °F - 62.6 °F 78% 30.20 in 10.0 mi Calm Calm - N/A   Mostly Cloudy
8:05 AM 73.4 °F - 62.6 °F 69% 30.21 in 10.0 mi North 4.6 mph - N/A   Scattered Clouds
8:25 AM 73.4 °F - 59.0 °F 61% 30.21 in 10.0 mi North 4.6 mph - N/A   Scattered Clouds
8:45 AM 75.2 °F - 59.0 °F 57% 30.22 in 10.0 mi NNW 6.9 mph - N/A   Clear
9:05 AM 75.2 °F - 57.2 °F 53% 30.21 in 10.0 mi NNW 6.9 mph - N/A   Clear
9:25 AM 75.2 °F - 55.4 °F 50% 30.22 in 10.0 mi NNW 4.6 mph - N/A   Clear
9:45 AM 75.2 °F - 55.4 °F 50% 30.22 in 10.0 mi NNW 4.6 mph - N/A   Clear
10:05 AM 75.2 °F - 55.4 °F 50% 30.22 in 10.0 mi North 4.6 mph - N/A   Clear
10:25 AM 75.2 °F - 55.4 °F 50% 30.22 in 10.0 mi NNW 3.5 mph - N/A   Clear
10:45 AM 77.0 °F - 57.2 °F 50% 30.22 in 10.0 mi NNW 3.5 mph - N/A   Clear
11:05 AM 78.8 °F - 55.4 °F 44% 30.22 in 10.0 mi North 4.6 mph - N/A   Clear
11:26 AM 78.8 °F - 55.4 °F 44% 30.21 in 7.0 mi North 6.9 mph - N/A   Clear
11:46 AM 78.8 °F - 55.4 °F 44% 30.20 in 10.0 mi North 4.6 mph - N/A   Clear
12:05 PM 78.8 °F - 57.2 °F 47% 30.20 in 10.0 mi North 5.8 mph - N/A   Clear
12:26 PM 78.8 °F - 55.4 °F 44% 30.20 in 10.0 mi West 6.9 mph - N/A   Clear
12:46 PM 78.8 °F - 53.6 °F 42% 30.20 in 10.0 mi WNW 3.5 mph - N/A   Clear
1:06 PM 78.8 °F - 51.8 °F 39% 30.20 in 10.0 mi WNW 6.9 mph - N/A   Clear
1:26 PM 80.6 °F 80.3 °F 53.6 °F 39% 30.20 in 10.0 mi WNW 9.2 mph - N/A   Clear
1:46 PM 80.6 °F 80.3 °F 53.6 °F 39% 30.20 in 10.0 mi WNW 6.9 mph - N/A   Clear
2:06 PM 80.6 °F 80.3 °F 53.6 °F 39% 30.19 in 10.0 mi NW 4.6 mph - N/A   Clear
2:26 PM 80.6 °F 80.3 °F 53.6 °F 39% 30.19 in 10.0 mi NW 6.9 mph - N/A   Clear
2:46 PM 80.6 °F 80.5 °F 55.4 °F 42% 30.18 in 10.0 mi NW 4.6 mph - N/A   Clear
3:06 PM 78.8 °F - 55.4 °F 44% 30.18 in 10.0 mi WSW 4.6 mph - N/A   Clear
3:26 PM 80.6 °F 80.5 °F 55.4 °F 42% 30.17 in 10.0 mi WNW 4.6 mph - N/A   Clear
3:46 PM 80.6 °F 80.5 °F 55.4 °F 42% 30.16 in 10.0 mi NW 5.8 mph - N/A   Clear
4:06 PM 80.6 °F 80.8 °F 57.2 °F 45% 30.16 in 10.0 mi WSW 6.9 mph - N/A   Scattered Clouds
4:26 PM 80.6 °F 80.5 °F 55.4 °F 42% 30.15 in 10.0 mi West 5.8 mph - N/A   Scattered Clouds
4:46 PM 80.6 °F 80.8 °F 57.2 °F 45% 30.15 in 10.0 mi West 6.9 mph - N/A   Clear
5:05 PM 80.6 °F 80.5 °F 55.4 °F 42% 30.15 in 10.0 mi West 6.9 mph - N/A   Clear
5:26 PM 80.6 °F 81.1 °F 59.0 °F 48% 30.16 in 10.0 mi Calm Calm - N/A   Clear
5:46 PM 78.8 °F - 59.0 °F 51% 30.15 in 10.0 mi WSW 4.6 mph - N/A   Scattered Clouds
6:06 PM 78.8 °F - 59.0 °F 51% 30.16 in 10.0 mi WSW 5.8 mph - N/A   Scattered Clouds
6:26 PM 78.8 °F - 59.0 °F 51% 30.16 in 10.0 mi WSW 3.5 mph - N/A   Scattered Clouds
6:46 PM 78.8 °F - 59.0 °F 51% 30.15 in 10.0 mi WSW 3.5 mph - N/A   Clear
7:06 PM 78.8 °F - 60.8 °F 54% 30.15 in 10.0 mi Calm Calm - N/A   Clear
7:26 PM 78.8 °F - 62.6 °F 57% 30.15 in 10.0 mi Calm Calm - N/A   Clear
7:46 PM 75.2 °F - 62.6 °F 65% 30.15 in 10.0 mi Calm Calm - N/A   Clear
8:07 PM 73.4 °F - 64.4 °F 73% 30.15 in 10.0 mi Calm Calm - N/A   Clear
8:47 PM 69.8 °F - 62.6 °F 78% 30.16 in 10.0 mi Calm Calm - N/A   Clear
9:07 PM 69.8 °F - 62.6 °F 78% 30.16 in 10.0 mi Calm Calm - N/A   Clear
9:27 PM 69.8 °F - 64.4 °F 83% 30.16 in 10.0 mi Calm Calm - N/A   Clear
9:47 PM 69.8 °F - 64.4 °F 83% 30.16 in 10.0 mi Calm Calm - N/A   Clear
10:07 PM 69.8 °F - 64.4 °F 83% 30.16 in 10.0 mi Calm Calm - N/A   Clear
10:27 PM 68.0 °F - 62.6 °F 83% 30.16 in 10.0 mi Calm Calm - N/A   Clear
10:47 PM 68.0 °F - 62.6 °F 83% 30.16 in 10.0 mi Calm Calm - N/A   Clear
11:06 PM 68.0 °F - 62.6 °F 83% 30.16 in 10.0 mi Calm Calm - N/A   Clear
11:27 PM 66.2 °F - 62.6 °F 88% 30.16 in 10.0 mi Calm Calm - N/A   Clear
11:47 PM 64.4 °F - 62.6 °F 94% 30.16 in 10.0 mi Calm Calm - N/A   Clear